Location: DARK SKY Beskydy - Park tmavé oblohy, www.darkskybeskydy.cz
(49.4926°N, 18.5016°E)
Time: 03:17:21
(UTC+02:00)

A-11 Canister half - Pass Details

Date: 27 February 2024
Orbit: 1513 x 1686 km, 47.2° (Epoch: 24 April)

Event Time Altitude Azimuth Distance (km) Brightness Sun altitude
Rises 00:39:55 0° 216° (SW) 4,926 - -48.2°
Reaches altitude 10° 00:43:18 10° 210° (SSW) 3,943 - -48.1°
Maximum altitude 00:52:35 43° 144° (SE) 2,229 - -47.6°
Exits shadow 00:58:09 24° 90° (E) 2,960 10.5 -47.3°
Drops below altitude 10° 01:01:45 10° 78° (ENE) 3,901 11.4 -47.1°
Sets 01:05:04 0° 72° (ENE) 4,869 12.0 -46.8°
